Current weather by "City, St" or "zip code"  
 
Advertise Here

Current Conditions: Johnstown - Cambria County Airport, PA

Mostly Cloudy


67.0 F

Last Updated on Sep 16 2021, 9:54 pm EDT
Humidity: 84%
Wind Speed: E 3.5 mph
Barometer 30.25 in
Dewpoint: 62.1 F
Visibility: 10.00 mi
Precip: --
Heat Index: NA
Wind Chill: NA
Current conditions at:

Johnstown - Cambria County Airport, PA (KJST)

Lat: 40.3149 Lon: 78.83074

Local Radar Image active severe weather and emergency alerts image image weather storm and storm spotter reports image weather observation monitoring service image
Local
Radar
Active
Alerts
Storm Reports Obs
Monitoring

Sign-up For Email & Text Message Weather Alert Notification Services



Advertise Here

Observation History for Johnstown - Cambria County Airport, PA


Time Wind
(mph)
Vis
(mi)
Weather Precip (in) Temperature (F) Relative
Humidity
Wind
Chill
(F)
Heat
Index
(F)
Pressure
Air Dwpt altimeter
(in)
sea level
(mb)
Rmks
9:54 pm EDT E 3.5 10.00 Mostly Cloudy -- 67.0 62.1 84% NA NA 30.25 1023.4
8:54 pm EDT E 4.6 10.00 Overcast -- 67.0 62.1 84% NA NA 30.24 1023.3
7:54 pm EDT E 4.6 10.00 Overcast -- 67.0 62.1 84% NA NA 30.22 1022.6
6:54 pm EDT E 4.6 10.00 Overcast -- 68.0 61.0 78% NA NA 30.21 1022.3
5:54 pm EDT E 4.6 10.00 Overcast -- 69.0 61.0 76% NA NA 30.20 1021.9
4:54 pm EDT E 4.6 10.00 Overcast -- 70.0 62.1 76% NA NA 30.19 1021.4
3:54 pm EDT E 4.6 10.00 Overcast -- 69.0 62.1 78% NA NA 30.20 1021.5
2:54 pm EDT SE 6.9 10.00 Overcast -- 69.0 61.0 76% NA NA 30.21 1022.1
1:54 pm EDT E 5.8 10.00 Overcast -- 68.0 61.0 78% NA NA 30.23 1022.6
12:54 pm EDT E 5.8 10.00 Overcast -- 68.0 61.0 78% NA NA 30.23 1022.8
11:54 am EDT 3.5 10.00 Overcast -- 67.0 62.1 84% NA NA 30.23 1022.6
10:54 am EDT E 3.5 8.00 Overcast -- 65.0 62.1 90% NA NA 30.23 1022.7
9:54 am EDT N 0.0 5.00 Fog/Mist -- 64.0 61.0 90% NA NA 30.22 1022.5
8:54 am EDT E 3.5 4.00 Fog/Mist -- 63.0 61.0 93% NA NA 30.20 1022.0
7:54 am EDT E 3.5 0.75 Fog/Mist -- 62.0 60.1 93% NA NA 30.19 1021.4
6:54 am EDT N 0.0 0.25 Fog -- 61.0 59.0 93% NA NA 30.17 1020.9
5:54 am EDT E 4.6 0.25 Fog -- 61.0 59.0 93% 61 NA 30.15 1019.9
4:54 am EDT NE 4.6 0.15 Fog -- 62.0 59.0 90% 62 NA 30.14 1019.4
3:54 am EDT N 0.0 0.25 Fog -- 62.0 60.1 93% NA NA 30.12 1018.9
2:54 am EDT E 3.5 0.25 Fog -- 63.0 60.1 90% NA NA 30.13 1019.1
1:54 am EDT N 0.0 0.50 Fog Trace 63.0 61.0 93% NA NA 30.13 1019.0
12:54 am EDT N 0.0 4.00 Fog/Mist Trace 63.0 61.0 93% NA NA 30.13 1018.9
11:54 pm EDT N 0.0 5.00 Light Rain Fog/Mist 00.01 64.0 61.0 90% NA NA 30.13 1018.9
10:54 pm EDT N 0.0 9.00 Light Rain 00.01 64.0 62.1 93% NA NA 30.12 1018.8

Regional Weather Observation


Johnstown - Cambria County Airport, PA (KJST)

Mostly Cloudy
67.0 F

Somerset County Airport, PA (K2G9)

Overcast
64.0 F

Latrobe / Westmoreland, PA (KLBE)

Fair
70.0 F

Bedford, Bedford County Airport, PA (KHMZ)

Overcast
68.0 F

Altoona - Blair County Airport, PA (KAOO)

Mostly Cloudy
70.0 F

Pittsburgh - Allegheny County Airport, PA (KAGC)

Fair
70.0 F
Advertise Here


Advertise Here